CW1490 Weather Reports


Display with metric or nautical units.
time (UTC)temp
F
wind
direction
speed
MPH
gust
MPH
rain 1hr
in
rain 24hr
in
rain mn
in
humidity
%
barometer
mb
20140731032035 57 223 1.0 2.0 0.00 0.00 0.00 93 1016.4
20140731030534 58 223 0.0 2.0 0.00 0.00 0.00 93 1016.4
20140731025033 58 223 1.0 3.0 0.00 0.00 0.00 92 1016.4
20140731023531 58 221 1.0 2.0 0.00 0.00 0.00 92 1016.2
20140731022031 59 221 0.0 3.0 0.00 0.00 0.00 92 1016.1
20140731020830 59 220 0.0 0.0 0.00 0.00 0.00 91 1016.0
20140731015029 60 220 0.0 2.0 0.00 0.00 0.00 90 1015.8
20140731013529 61 220 0.0 3.0 0.00 0.00 0.00 90 1016.0
20140731012029 62 219 1.0 2.0 0.00 0.00 0.00 89 1015.8
20140731010528 63 219 0.0 3.0 0.00 0.00 0.00 88 1015.7
20140731005027 64 219 1.0 2.0 0.00 0.00 0.00 86 1015.5
20140731003527 65 219 0.0 2.0 0.00 0.00 0.00 85 1015.4
20140731002027 66 219 0.0 0.0 0.00 0.00 0.00 83 1015.2
20140731000526 68 219 0.0 2.0 0.00 0.00 0.00 82 1015.0
20140730235025 69 219 0.0 2.0 0.00 0.00 0.00 81 1015.0
20140730233525 70 219 0.0 1.0 0.00 0.00 0.00 76 1014.9
20140730232025 72 219 0.0 4.0 0.00 0.00 0.00 73 1014.7
20140730230523 72 194 0.0 3.0 0.00 0.00 0.00 70 1014.8
20140730225023 73 205 0.0 2.0 0.00 0.00 0.00 69 1014.8
20140730223522 74 230 0.0 2.0 0.00 0.00 0.00 69 1014.7
20140730222021 74 230 0.0 1.0 0.00 0.00 0.00 68 1014.6
20140730220520 74 230 0.0 1.0 0.00 0.00 0.00 68 1014.5
20140730215019 74 230 0.0 1.0 0.00 0.00 0.00 71 1014.4
20140730213519 74 230 0.0 0.0 0.00 0.00 0.00 64 1014.4
20140730212018 75 230 1.0 4.0 0.00 0.00 0.00 61 1014.4
20140730210518 75 242 1.0 3.0 0.00 0.00 0.00 62 1014.3
20140730205018 77 282 0.0 2.0 0.00 0.00 0.00 57 1014.3
20140730203517 77 203 2.0 3.0 0.00 0.00 0.00 53 1014.3
20140730202017 77 118 3.0 5.0 0.00 0.00 0.00 50 1014.2
20140730200513 76 258 1.0 4.0 0.00 0.00 0.00 53 1014.3
20140730195012 76 230 1.0 3.0 0.00 0.00 0.00 59 1014.5
20140730193510 75 275 2.0 4.0 0.00 0.00 0.00 56 1014.3
20140730192010 74 170 0.0 3.0 0.00 0.00 0.00 57 1014.3
20140730190509 75 130 2.0 5.0 0.00 0.00 0.00 58 1014.3
20140730185208 74 234 1.0 5.0 0.00 0.00 0.00 58 1014.3
20140730183507 74 226 2.0 4.0 0.00 0.00 0.00 64 1014.4
20140730182008 74 235 1.0 5.0 0.00 0.00 0.00 62 1014.5
20140730180506 75 217 3.0 8.0 0.00 0.00 0.00 61 1014.6
20140730175006 75 211 1.0 4.0 0.00 0.00 0.00 67 1014.6
20140730173505 75 151 1.0 2.0 0.00 0.00 0.00 60 1014.7
20140730172004 75 143 1.0 3.0 0.00 0.00 0.00 62 1014.8
20140730170503 75 155 1.0 6.0 0.00 0.00 0.00 60 1014.9
20140730165000 74 136 2.0 5.0 0.00 0.00 0.00 64 1015.0
20140730161958 74 49 2.0 4.0 0.00 0.00 0.00 66 1015.3
20140730160457 74 94 2.0 5.0 0.00 0.00 0.00 69 1015.4
20140730154954 73 42 3.0 7.0 0.00 0.00 0.00 66 1015.5
20140730153451 72 86 1.0 6.0 0.00 0.00 0.00 66 1015.7
20140730152033 71 22 2.0 6.0 0.00 0.00 0.00 73 1015.7
20140730150442 70 79 2.0 9.0 0.00 0.00 0.00 76 1015.8
20140730144940 68 47 5.0 9.0 0.00 0.00 0.00 79 1015.9
20140730143451 66 20 4.0 6.0 0.00 0.00 0.00 84 1015.9
20140730141918 64 41 3.0 6.0 0.00 0.00 0.00 87 1016.1
20140730140413 63 43 3.0 6.0 0.00 0.00 0.00 87 1016.1
20140730134909 63 55 2.0 4.0 0.00 0.00 0.00 89 1016.1
20140730133414 62 16 3.0 4.0 0.00 0.00 0.00 89 1016.1
20140730131901 61 47 2.0 4.0 0.00 0.00 0.00 92 1016.1
20140730124852 59 15 0.0 3.0 0.00 0.00 0.00 96 1016.1
20140730123348 59 26 2.0 4.0 0.00 0.00 0.00 96 1016.1
20140730121844 58 47 2.0 5.0 0.00 0.00 0.00 97 1016.1
20140730120340 58 42 3.0 5.0 0.00 0.00 0.00 97 1016.0
20140730114837 57 53 1.0 5.0 0.00 0.00 0.00 97 1016.0
20140730113532 57 18 2.0 4.0 0.00 0.00 0.00 97 1015.9
20140730111830 57 24 2.0 5.0 0.00 0.00 0.00 97 1015.8
20140730110327 57 26 3.0 5.0 0.00 0.00 0.00 97 1015.6
20140730104824 57 20 2.0 4.0 0.00 0.00 0.00 97 1015.3
20140730103321 56 55 2.0 4.0 0.00 0.00 0.00 97 1015.2
20140730101819 56 27 3.0 4.0 0.00 0.00 0.00 97 1015.0
20140730100317 56 30 2.0 5.0 0.00 0.00 0.00 97 1015.1
20140730094815 56 17 2.0 5.0 0.00 0.00 0.00 97 1015.0
20140730093314 57 355 1.0 3.0 0.00 0.00 0.00 97 1014.9
20140730091813 57 12 2.0 5.0 0.00 0.00 0.00 97 1014.8
20140730090311 57 32 3.0 6.0 0.00 0.00 0.00 97 1014.7
20140730084810 57 16 1.0 6.0 0.00 0.00 0.00 97 1014.6
20140730083308 57 43 4.0 5.0 0.00 0.00 0.00 97 1014.4
20140730081807 57 28 2.0 4.0 0.00 0.00 0.00 97 1014.4
20140730080306 57 47 4.0 6.0 0.00 0.00 0.00 96 1014.2
20140730074806 57 38 0.0 2.0 0.00 0.00 0.00 96 1014.1
20140730073305 57 38 0.0 2.0 0.00 0.00 0.00 96 1014.1
20140730071804 57 36 2.0 3.0 0.00 0.00 0.00 96 1014.1
20140730070304 57 46 2.0 3.0 0.00 0.00 0.00 96 1014.2
20140730064803 57 47 0.0 3.0 0.00 0.00 0.00 96 1014.2
20140730063303 57 32 1.0 3.0 0.00 0.00 0.00 96 1014.4
20140730061805 57 33 1.0 2.0 0.00 0.00 0.00 96 1014.5
20140730060300 57 33 0.0 2.0 0.00 0.00 0.00 96 1014.4
20140730054758 57 33 0.0 2.0 0.00 0.00 0.00 96 1014.3
20140730053256 57 33 0.0 1.0 0.00 0.00 0.00 96 1014.2
20140730051755 57 33 0.0 1.0 0.00 0.00 0.00 96 1014.1
20140730050254 57 33 0.0 2.0 0.00 0.00 0.00 95 1014.0
20140730044754 57 33 0.0 2.0 0.00 0.00 0.00 95 1013.9
20140730043252 57 17 1.0 4.0 0.00 0.00 0.00 95 1013.9
20140730041950 57 24 1.0 3.0 0.00 0.00 0.00 95 1013.8
20140730040249 57 25 1.0 3.0 0.00 0.00 0.00 94 1013.7
20140730034747 57 39 2.0 4.0 0.00 0.00 0.00 94 1013.6
20140730033245 57 205 0.0 0.0 0.00 0.00 0.00 94 1013.4